Location: Airlie Beach - Cannonvale QLD, Australia
(20.2768°S, 148.7558°E)
Time: 04:31:51
(UTC+10:00)

BlueWalker 3 - Pass Details

Date: 01 April 2023
Orbit: 494 x 513 km, 53.2° (Epoch: 31 May)

Event Time Altitude Azimuth Distance (km) Brightness Sun altitude
Exits shadow 04:12:23 20° 52° (NE) 1,194 4.2 -28.8°
Maximum altitude 04:12:38 20° 57° (ENE) 1,191 4.3 -28.8°
Drops below altitude 10° 04:15:29 10° 106° (ESE) 1,699 5.6 -28.1°
Sets 04:18:05 0° 123° (ESE) 2,591 6.5 -27.5°
